Cozumel, Mexico

1:15 PM on April 25, 2017 (GMT +0000)
Cozumel International

Weather History for MMCZ - January, 2013

Change the Weather History Date:

Wednesday, January 16, 2013

  Actual Average Record
Temperature  
Mean Temperature 71 °F -  
Max Temperature 82 °F 80 °F 84 °F (1999)
Min Temperature 60 °F 68 °F 59 °F (2011)
Cooling Degree Days 6    
Growing Degree Days 21 (Base 50)    
Moisture  
Dew Point 54 °F    
Average Humidity 59    
Maximum Humidity 78    
Minimum Humidity 42    
Precipitation  
Precipitation 0.00 in - - ()
Sea Level Pressure  
Sea Level Pressure 29.98 in    
Wind  
Wind Speed 2 mph ()    
Max Wind Speed 10 mph    
Max Gust Speed -    
Visibility 7.5 miles    
Events      
Averages and records for this station are not official NWS values.
T = Trace of Precipitation, MM = Missing Value Source: Averaged Metar Reports

Daily Weather History Graph

Daily Weather History Graph

Search for Another Location

Airport or City:

Trip Planner

Search our weather history database for the weather conditions in past years. The results will help you decide how hot, cold, wet, or windy it might be!

Date:

Astronomy

Jan. 16, 2013 Rise Set
Actual Time 6:26 AM CST 5:28 PM CST
Civil Twilight 6:02 AM CST 5:52 PM CST
Nautical Twilight 5:35 AM CST 6:19 PM CST
Astronomical Twilight 5:08 AM CST 6:46 PM CST
Moon 9:50 AM CST (1/16) 10:27 PM CST (1/16)
Length of Visible Light 11h 49m
Length of Day
11h 02m
Waxing Crescent, 28% of the Moon is Illuminated
Jan 16
Waxing Crescent
Jan 18
First Quarter
Jan 26
Full
Feb 3
Last Quarter
Feb 10
New

Hourly Weather History & Observations

Time (CST) Temp. Heat Index Dew Point Humidity Pressure Visibility Wind Dir Wind Speed Gust Speed Precip Events Conditions
12:46 AM 62.6 °F - 51.8 °F 68% 29.97 in 7.0 mi Calm Calm - N/A   Clear
1:50 AM 64.4 °F - 51.8 °F 64% 29.95 in 7.0 mi Calm Calm - N/A   Clear
3:00 AM 62.6 °F - 50.0 °F 63% 29.97 in 7.0 mi Calm Calm - N/A   Clear
3:54 AM 60.8 °F - 50.0 °F 68% 29.95 in 7.0 mi Calm Calm - N/A   Clear
4:44 AM 60.8 °F - 50.0 °F 68% 29.96 in 7.0 mi Calm Calm - N/A   Clear
5:52 AM 60.8 °F - 48.2 °F 63% 29.94 in 7.0 mi Calm Calm - N/A   Partly Cloudy
6:45 AM 60.8 °F - 50.0 °F 68% 29.99 in 8.0 mi Calm Calm - N/A   Partly Cloudy
7:46 AM 69.8 °F - 62.6 °F 78% 30.01 in 8.0 mi Calm Calm - N/A   Partly Cloudy
8:43 AM 77.0 °F - 59.0 °F 54% 30.05 in 8.0 mi East 4.6 mph - N/A   Partly Cloudy
9:41 AM 78.8 °F - 59.0 °F 51% 30.03 in 8.0 mi ENE 9.2 mph - N/A   Scattered Clouds
10:50 AM 80.6 °F 80.8 °F 57.2 °F 45% 30.00 in 8.0 mi East 6.9 mph - N/A   Scattered Clouds
11:43 AM 80.6 °F 80.5 °F 55.4 °F 42% 29.96 in 8.0 mi ESE 10.4 mph - N/A   Scattered Clouds
12:56 PM 82.4 °F 82.5 °F 59.0 °F 45% 29.96 in 8.0 mi SE 6.9 mph - N/A   Scattered Clouds
1:46 PM 80.6 °F 80.8 °F 57.2 °F 45% 29.95 in 8.0 mi SE 3.5 mph - N/A   Mostly Cloudy
2:51 PM 77.0 °F - 57.2 °F 50% 29.97 in 8.0 mi SSE 4.6 mph - N/A   Scattered Clouds
3:52 PM 77.0 °F - 57.2 °F 50% 29.96 in 8.0 mi East 4.6 mph - N/A   Scattered Clouds
4:49 PM 75.2 °F - 55.4 °F 50% 29.97 in 8.0 mi SE 3.5 mph - N/A   Scattered Clouds
5:53 PM 71.6 °F - 53.6 °F 53% 29.95 in 8.0 mi Calm Calm - N/A   Partly Cloudy
6:49 PM 68.0 °F - 55.4 °F 64% 30.00 in 8.0 mi Calm Calm - N/A   Partly Cloudy
7:46 PM 66.2 °F - 50.0 °F 56% 30.02 in 7.0 mi Calm Calm - N/A   Partly Cloudy
8:43 PM 64.4 °F - 50.0 °F 59% 30.04 in 7.0 mi Calm Calm - N/A   Partly Cloudy
9:45 PM 64.4 °F - 55.4 °F 73% 30.02 in 7.0 mi ESE 3.5 mph - N/A   Partly Cloudy
10:43 PM 64.4 °F - 50.0 °F 59% 30.02 in 7.0 mi Calm Calm - N/A   Partly Cloudy
11:52 PM 62.6 °F - 55.4 °F 77% 29.99 in 7.0 mi Calm Calm - N/A   Scattered Clouds